Time,TemperatureF,DewpointF,PressureIn,WindDirection,WindDirectionDegrees,WindSpeedMPH,WindSpeedGustMPH,Humidity,HourlyPrecipIn,Conditions,Clouds,dailyrainin,SoftwareType,DateUTC
2013-01-21 00:03:00,46.4,29.0,30.17,SSE,155,0.0,0.0,51,0.00,,,0.00,weatherlink.com 1.10,2013-01-21 08:03:00,
2013-01-21 00:18:00,45.5,29.0,30.16,SSE,155,0.0,0.0,53,0.00,,,0.00,weatherlink.com 1.10,2013-01-21 08:18:00,
2013-01-21 00:33:00,45.0,30.0,30.16,SSE,155,0.0,0.0,55,0.00,,,0.00,weatherlink.com 1.10,2013-01-21 08:33:00,
2013-01-21 00:48:00,45.4,29.0,30.15,SSE,155,0.0,0.0,54,0.00,,,0.00,weatherlink.com 1.10,2013-01-21 08:48:00,
2013-01-21 01:03:00,45.4,30.0,30.15,SSE,155,0.0,0.0,55,0.00,,,0.00,weatherlink.com 1.10,2013-01-21 09:03:00,
2013-01-21 01:18:00,45.1,30.0,30.15,SSE,155,0.0,0.0,55,0.00,,,0.00,weatherlink.com 1.10,2013-01-21 09:18:00,
2013-01-21 01:33:00,45.0,29.0,30.15,SSE,155,0.0,0.0,54,0.00,,,0.00,weatherlink.com 1.10,2013-01-21 09:33:00,
2013-01-21 01:48:00,45.4,29.0,30.15,SSE,155,0.0,0.0,53,0.00,,,0.00,weatherlink.com 1.10,2013-01-21 09:48:00,
2013-01-21 02:03:00,45.3,29.0,30.15,SSE,155,0.0,0.0,54,0.00,,,0.00,weatherlink.com 1.10,2013-01-21 10:03:00,
2013-01-21 02:18:00,44.9,29.0,30.14,SSE,155,0.0,0.0,55,0.00,,,0.00,weatherlink.com 1.10,2013-01-21 10:18:00,
2013-01-21 02:33:00,44.4,29.0,30.14,SSE,155,0.0,0.0,56,0.00,,,0.00,weatherlink.com 1.10,2013-01-21 10:33:00,
2013-01-21 02:48:00,44.5,29.0,30.14,South,188,0.0,0.0,54,0.00,,,0.00,weatherlink.com 1.10,2013-01-21 10:48:00,
2013-01-21 03:03:00,44.4,29.0,30.14,South,188,0.0,0.0,56,0.00,,,0.00,weatherlink.com 1.10,2013-01-21 11:03:00,
2013-01-21 03:18:00,43.8,28.0,30.13,South,188,0.0,0.0,54,0.00,,,0.00,weatherlink.com 1.10,2013-01-21 11:18:00,
2013-01-21 03:33:00,43.9,29.0,30.13,South,188,0.0,0.0,56,0.00,,,0.00,weatherlink.com 1.10,2013-01-21 11:33:00,
2013-01-21 03:48:00,43.9,29.0,30.12,South,188,0.0,0.0,57,0.00,,,0.00,weatherlink.com 1.10,2013-01-21 11:48:00,
2013-01-21 04:03:00,44.0,29.0,30.12,South,188,0.0,0.0,57,0.00,,,0.00,weatherlink.com 1.10,2013-01-21 12:03:00,
2013-01-21 04:18:00,44.1,30.0,30.12,South,188,0.0,0.0,58,0.00,,,0.00,weatherlink.com 1.10,2013-01-21 12:18:00,
2013-01-21 04:33:00,44.9,30.0,30.12,South,188,0.0,0.0,57,0.00,,,0.00,weatherlink.com 1.10,2013-01-21 12:33:00,
2013-01-21 04:48:00,44.5,30.0,30.12,South,188,0.0,0.0,58,0.00,,,0.00,weatherlink.com 1.10,2013-01-21 12:48:00,
2013-01-21 05:03:00,42.9,30.0,30.12,South,188,0.0,0.0,60,0.00,,,0.00,weatherlink.com 1.10,2013-01-21 13:03:00,
2013-01-21 05:18:00,42.1,29.0,30.12,South,188,0.0,0.0,61,0.00,,,0.00,weatherlink.com 1.10,2013-01-21 13:18:00,
2013-01-21 05:33:00,42.5,30.0,30.12,South,188,0.0,0.0,61,0.00,,,0.00,weatherlink.com 1.10,2013-01-21 13:33:00,
2013-01-21 05:48:00,41.9,30.0,30.11,South,188,0.0,0.0,64,0.00,,,0.00,weatherlink.com 1.10,2013-01-21 13:48:00,
2013-01-21 06:03:00,41.3,30.0,30.12,South,188,0.0,0.0,65,0.00,,,0.00,weatherlink.com 1.10,2013-01-21 14:03:00,
2013-01-21 06:19:00,40.7,30.0,30.11,South,188,0.0,0.0,66,0.00,,,0.00,weatherlink.com 1.10,2013-01-21 14:19:00,
2013-01-21 06:34:00,40.7,29.0,30.12,South,188,0.0,0.0,64,0.00,,,0.00,weatherlink.com 1.10,2013-01-21 14:34:00,
2013-01-21 06:49:00,40.3,29.0,30.12,South,188,0.0,0.0,65,0.00,,,0.00,weatherlink.com 1.10,2013-01-21 14:49:00,
2013-01-21 07:04:00,40.4,29.0,30.13,South,188,0.0,0.0,64,0.00,,,0.00,weatherlink.com 1.10,2013-01-21 15:04:00,
2013-01-21 07:19:00,39.9,29.0,30.13,South,188,0.0,0.0,66,0.00,,,0.00,weatherlink.com 1.10,2013-01-21 15:19:00,
2013-01-21 07:34:00,39.6,30.0,30.14,South,188,0.0,0.0,68,0.00,,,0.00,weatherlink.com 1.10,2013-01-21 15:34:00,
2013-01-21 07:49:00,39.5,30.0,30.15,South,188,0.0,0.0,69,0.00,,,0.00,weatherlink.com 1.10,2013-01-21 15:49:00,
2013-01-21 08:04:00,39.7,30.0,30.15,South,188,0.0,0.0,69,0.00,,,0.00,weatherlink.com 1.10,2013-01-21 16:04:00,
2013-01-21 08:19:00,40.1,30.0,30.16,South,188,0.0,0.0,68,0.00,,,0.00,weatherlink.com 1.10,2013-01-21 16:19:00,
2013-01-21 08:34:00,41.2,32.0,30.16,South,188,0.0,0.0,69,0.00,,,0.00,weatherlink.com 1.10,2013-01-21 16:34:00,
2013-01-21 08:49:00,43.1,34.0,30.16,South,188,0.0,0.0,70,0.00,,,0.00,weatherlink.com 1.10,2013-01-21 16:49:00,
2013-01-21 09:04:00,45.7,35.0,30.16,South,188,0.0,0.0,67,0.00,,,0.00,weatherlink.com 1.10,2013-01-21 17:04:00,
2013-01-21 09:19:00,47.1,37.0,30.17,NNW,339,0.0,1.0,67,0.00,,,0.00,weatherlink.com 1.10,2013-01-21 17:19:00,
2013-01-21 09:34:00,48.7,37.0,30.17,NW,322,0.0,1.0,64,0.00,,,0.00,weatherlink.com 1.10,2013-01-21 17:34:00,
2013-01-21 09:49:00,50.2,36.0,30.18,North,360,0.0,1.0,59,0.00,,,0.00,weatherlink.com 1.10,2013-01-21 17:49:00,
2013-01-21 10:04:00,51.9,37.0,30.18,North,359,0.0,1.0,58,0.00,,,0.00,weatherlink.com 1.10,2013-01-21 18:04:00,
2013-01-21 10:19:00,53.3,38.0,30.18,SSW,195,0.0,1.0,56,0.00,,,0.00,weatherlink.com 1.10,2013-01-21 18:19:00,
2013-01-21 10:34:00,53.7,37.0,30.18,North,349,0.0,1.0,53,0.00,,,0.00,weatherlink.com 1.10,2013-01-21 18:34:00,
2013-01-21 10:49:00,55.1,38.0,30.18,North,351,0.0,2.0,52,0.00,,,0.00,weatherlink.com 1.10,2013-01-21 18:49:00,
2013-01-21 11:04:00,56.1,38.0,30.18,NNW,345,2.0,3.0,51,0.00,,,0.00,weatherlink.com 1.10,2013-01-21 19:04:00,
2013-01-21 11:19:00,56.6,37.0,30.18,North,1,0.0,1.0,48,0.00,,,0.00,weatherlink.com 1.10,2013-01-21 19:19:00,
2013-01-21 11:34:00,57.3,36.0,30.17,North,352,0.0,2.0,45,0.00,,,0.00,weatherlink.com 1.10,2013-01-21 19:34:00,
2013-01-21 11:49:00,58.0,36.0,30.16,NNW,347,0.0,2.0,44,0.00,,,0.00,weatherlink.com 1.10,2013-01-21 19:49:00,
2013-01-21 12:04:00,58.7,39.0,30.15,South,178,0.0,3.0,48,0.00,,,0.00,weatherlink.com 1.10,2013-01-21 20:04:00,
2013-01-21 12:20:00,60.0,37.0,30.14,NNW,342,0.0,3.0,42,0.00,,,0.00,weatherlink.com 1.10,2013-01-21 20:20:00,
2013-01-21 12:35:00,61.0,38.0,30.14,NW,313,0.0,2.0,43,0.00,,,0.00,weatherlink.com 1.10,2013-01-21 20:35:00,
2013-01-21 12:50:00,60.6,37.0,30.14,NNW,329,0.0,4.0,42,0.00,,,0.00,weatherlink.com 1.10,2013-01-21 20:50:00,
2013-01-21 13:05:00,61.2,37.0,30.13,NW,308,2.0,3.0,41,0.00,,,0.00,weatherlink.com 1.10,2013-01-21 21:05:00,
2013-01-21 13:20:00,61.8,39.0,30.13,NNW,338,2.0,2.0,43,0.00,,,0.00,weatherlink.com 1.10,2013-01-21 21:20:00,
2013-01-21 13:35:00,62.2,38.0,30.12,ESE,123,0.0,1.0,41,0.00,,,0.00,weatherlink.com 1.10,2013-01-21 21:35:00,
2013-01-21 13:50:00,62.3,38.0,30.12,NNW,340,0.0,2.0,40,0.00,,,0.00,weatherlink.com 1.10,2013-01-21 21:50:00,
2013-01-21 14:05:00,62.2,37.0,30.12,NNW,341,0.0,2.0,40,0.00,,,0.00,weatherlink.com 1.10,2013-01-21 22:05:00,
2013-01-21 14:20:00,62.2,37.0,30.12,NNW,328,0.0,2.0,39,0.00,,,0.00,weatherlink.com 1.10,2013-01-21 22:20:00,
2013-01-21 14:35:00,62.2,36.0,30.12,WNW,295,0.0,2.0,38,0.00,,,0.00,weatherlink.com 1.10,2013-01-21 22:35:00,
2013-01-21 14:50:00,62.8,37.0,30.11,WNW,302,0.0,2.0,39,0.00,,,0.00,weatherlink.com 1.10,2013-01-21 22:50:00,
2013-01-21 15:05:00,63.0,37.0,30.11,NNW,338,0.0,2.0,38,0.00,,,0.00,weatherlink.com 1.10,2013-01-21 23:05:00,
2013-01-21 15:20:00,62.7,37.0,30.11,NW,318,0.0,2.0,39,0.00,,,0.00,weatherlink.com 1.10,2013-01-21 23:20:00,
2013-01-21 15:35:00,62.5,38.0,30.10,NNW,340,0.0,1.0,40,0.00,,,0.00,weatherlink.com 1.10,2013-01-21 23:35:00,
2013-01-21 15:50:00,61.8,37.0,30.10,NNW,336,0.0,1.0,40,0.00,,,0.00,weatherlink.com 1.10,2013-01-21 23:50:00,
2013-01-21 16:05:00,61.4,37.0,30.10,NW,318,0.0,1.0,40,0.00,,,0.00,weatherlink.com 1.10,2013-01-22 00:05:00,
2013-01-21 16:35:00,58.9,37.0,30.09,NW,316,0.0,0.0,44,0.00,,,0.00,weatherlink.com 1.10,2013-01-22 00:35:00,
2013-01-21 16:50:00,57.3,39.0,30.10,NW,316,0.0,0.0,51,0.00,,,0.00,weatherlink.com 1.10,2013-01-22 00:50:00,
2013-01-21 17:05:00,55.3,40.0,30.10,NW,316,0.0,0.0,56,0.00,,,0.00,weatherlink.com 1.10,2013-01-22 01:05:00,
2013-01-21 17:20:00,53.4,40.0,30.09,NW,316,0.0,0.0,61,0.00,,,0.00,weatherlink.com 1.10,2013-01-22 01:20:00,
2013-01-21 17:35:00,52.2,39.0,30.09,NW,316,0.0,0.0,61,0.00,,,0.00,weatherlink.com 1.10,2013-01-22 01:35:00,
2013-01-21 17:50:00,51.1,39.0,30.10,NW,316,0.0,0.0,63,0.00,,,0.00,weatherlink.com 1.10,2013-01-22 01:50:00,
2013-01-21 18:05:00,50.7,39.0,30.10,NW,316,0.0,0.0,64,0.00,,,0.00,weatherlink.com 1.10,2013-01-22 02:05:00,
2013-01-21 18:20:00,51.3,39.0,30.10,SSE,150,0.0,1.0,62,0.00,,,0.00,weatherlink.com 1.10,2013-01-22 02:20:00,
2013-01-21 18:35:00,51.6,38.0,30.11,SSE,160,0.0,1.0,60,0.00,,,0.00,weatherlink.com 1.10,2013-01-22 02:35:00,
2013-01-21 18:50:00,51.5,37.0,30.11,South,170,0.0,1.0,59,0.00,,,0.00,weatherlink.com 1.10,2013-01-22 02:50:00,
2013-01-21 19:05:00,52.1,37.0,30.11,SSE,160,0.0,0.0,57,0.00,,,0.00,weatherlink.com 1.10,2013-01-22 03:05:00,
2013-01-21 19:20:00,51.3,37.0,30.11,SSE,159,0.0,0.0,58,0.00,,,0.00,weatherlink.com 1.10,2013-01-22 03:20:00,
2013-01-21 19:35:00,50.7,37.0,30.11,SSE,159,0.0,0.0,59,0.00,,,0.00,weatherlink.com 1.10,2013-01-22 03:35:00,
2013-01-21 19:50:00,49.8,35.0,30.11,SSE,159,0.0,0.0,58,0.00,,,0.00,weatherlink.com 1.10,2013-01-22 03:50:00,
2013-01-21 20:05:00,50.1,35.0,30.11,SSE,159,0.0,0.0,56,0.00,,,0.00,weatherlink.com 1.10,2013-01-22 04:05:00,
2013-01-21 20:20:00,50.0,33.0,30.11,SSE,160,0.0,0.0,53,0.00,,,0.00,weatherlink.com 1.10,2013-01-22 04:20:00,
2013-01-21 20:35:00,50.4,33.0,30.12,SSE,160,0.0,0.0,51,0.00,,,0.00,weatherlink.com 1.10,2013-01-22 04:35:00,
2013-01-21 20:50:00,50.6,31.0,30.12,SSE,159,0.0,0.0,48,0.00,,,0.00,weatherlink.com 1.10,2013-01-22 04:50:00,
2013-01-21 21:05:00,50.3,32.0,30.12,SSE,160,0.0,0.0,49,0.00,,,0.00,weatherlink.com 1.10,2013-01-22 05:05:00,
2013-01-21 21:20:00,49.3,32.0,30.13,SSE,159,0.0,0.0,51,0.00,,,0.00,weatherlink.com 1.10,2013-01-22 05:20:00,
2013-01-21 21:35:00,48.4,33.0,30.13,SSE,160,0.0,0.0,56,0.00,,,0.00,weatherlink.com 1.10,2013-01-22 05:35:00,
2013-01-21 21:50:00,47.7,36.0,30.13,SSE,159,0.0,0.0,63,0.00,,,0.00,weatherlink.com 1.10,2013-01-22 05:50:00,
2013-01-21 22:05:00,46.9,36.0,30.13,SSE,160,0.0,0.0,65,0.00,,,0.00,weatherlink.com 1.10,2013-01-22 06:05:00,
2013-01-21 22:20:00,46.9,36.0,30.13,SSE,159,0.0,0.0,67,0.00,,,0.00,weatherlink.com 1.10,2013-01-22 06:20:00,
2013-01-21 22:35:00,46.5,35.0,30.13,SSE,160,0.0,0.0,64,0.00,,,0.00,weatherlink.com 1.10,2013-01-22 06:35:00,
2013-01-21 22:50:00,46.0,33.0,30.13,SSE,160,0.0,0.0,61,0.00,,,0.00,weatherlink.com 1.10,2013-01-22 06:50:00,
2013-01-21 23:05:00,46.5,30.0,30.12,SSE,159,0.0,0.0,53,0.00,,,0.00,weatherlink.com 1.10,2013-01-22 07:05:00,
2013-01-21 23:20:00,46.9,31.0,30.12,SSE,160,0.0,0.0,55,0.00,,,0.00,weatherlink.com 1.10,2013-01-22 07:20:00,
2013-01-21 23:35:00,46.9,31.0,30.11,SSE,160,0.0,0.0,54,0.00,,,0.00,weatherlink.com 1.10,2013-01-22 07:35:00,
2013-01-21 23:50:00,47.8,32.0,30.11,SSE,159,0.0,0.0,55,0.00,,,0.00,weatherlink.com 1.10,2013-01-22 07:50:00,